www.pogodaiklimat.ru

Погода и климат >> Архив погоды >> Индия >> Трипура >> Кайлашахар


ПОГОДА в Кайлашахаре

  • Прогноз погоды в Кайлашахаре
  • Монитор погоды в Кайлашахаре

АРХИВ ПОГОДЫ в Кайлашахаре

Время (UTC), дата Ветер
(напр.,м/с)
 
Видим.   Явления Облачность Т
(С)
Тd
(С)
f
(%)
Тe
(С)
Тes
(С)
Комфортность P
(гПа)
Po
(гПа)
Тmin
(С)
Tmax
(С)
R
(мм)
R24
(мм)
S
(см)
00 12.09 штиль 0 2000 м дымка 8/5 540 м
[Sc Ac trans]
+26.6 +25.5 94 +39 +39 очень
душно
1005.8 1002.4 6
03 12.09 штиль 0 4000 м мгла 6/3 600 м
[Sc Ac trans]
+30.0 +24.9 74 +43 +50 опасность
перегрева
1009.3 1005.9 +25.6 6
06 12.09 Ю 2 4000 м 6/3 600 м
[Sc Ac trans]
+32.6 +26.2 69 +49 +59 опасность
перегрева
1008.6 1005.2
12 12.09 Ю 2 2000 м дымка {дождь} 9/5 300 м
[St Ac trans]
+28.2 +25.1 83 +41 +41 опасность
перегрева
1007.1 1003.7 +33.0 0.0
00 13.09 Ю 2 1000 м слаб. дождь 10/6 300 м
[Frnb As op]
+25.4 +24.5 95 +36 +36 очень
душно
1009.5 1006.0 3
03 13.09 Ю 2 4000 м дымка {дождь} 8/4 540 м
[Sc Ac trans]
+27.4 +25.1 87 +39 +43 очень
душно
1011.1 1007.7 +24.6 3
06 13.09 Ю 1 4000 м мгла {дождь} 6/3 600 м
[Sc Ac trans]
+31.6 +25.7 71 +47 +58 опасность
перегрева
1010.2 1006.8
12 13.09 Ю 2 2000 м дымка 9/5 540 м
[Sc Ac trans]
+28.8 +25.7 83 +43 +43 опасность
перегрева
1007.9 1004.5 +32.4
00 14.09 штиль 0 2000 м дымка 9/5 540 м
[Sc Ac trans]
+25.8 +24.6 93 +36 +36 очень
душно
1009.4 1005.9
03 14.09 штиль 0 4000 м дымка 8/5 540 м
[Sc Ac trans]
+28.4 +25.0 82 +41 +45 опасность
перегрева
1010.7 1007.3 +25.3
06 14.09 штиль 0 4000 м мгла 6/3 600 м
[Sc Ac trans]
+31.4 +25.8 72 +46 +60 опасность
перегрева
1009.2 1005.8
12 14.09 штиль 0 4000 м дымка 6/3 600 м
[Sc Ac trans]
+32.6 +27.7 75 +52 +52 опасность
перегрева
1006.0 1002.6 +34.4
00 15.09 штиль 0 1000 м дымка 3/0
[Ac trans]
+26.6 +25.7 95 +39 +39 очень
душно
1007.8 1004.4
03 15.09 штиль 0 4000 м дымка 6/3 600 м
[Sc Ac trans]
+30.0 +26.7 83 +47 +54 опасность
перегрева
1008.7 1005.3 +25.8
06 15.09 штиль 0 4000 м 6/3 600 м
[Sc Ac trans]
+33.2 +25.6 64 +48 +61 опасность
перегрева
1007.5 1004.1
12 15.09 штиль 0 4000 м мгла 6/0
[Ac trans Ci fib]
+33.4 +27.7 72 +53 +53 опасность
перегрева
1004.3 1000.9 +35.5
00 16.09 штиль 0 2000 м дымка 6/3 600 м
[Sc Ac trans]
+27.0 +25.6 92 +40 +40 очень
душно
1007.0 1003.6
03 16.09 штиль 0 4000 м мгла 6/3 600 м
[Sc Ac trans]
+31.4 +25.8 72 +46 +53 опасность
перегрева
1007.8 1004.4 +26.4
06 16.09 штиль 0 4000 м 8/4 540 м
[Cb calv Ac trans]
+33.6 +26.7 67 +51 +60 опасность
перегрева
1007.0 1003.6
12 16.09 штиль 0 2000 м дымка {дождь} 9/4 540 м
[Sc Ac trans]
+27.0 +25.9 94 +40 +40 очень
душно
1004.5 1001.1 +33.8 2
00 17.09 штиль 0 2000 м дымка 9/5 540 м
[Sc Ac trans]
+26.6 +25.7 95 +39 +39 очень
душно
1007.4 1004.0 2
03 17.09 штиль 0 4000 м дымка 8/4 600 м
[Sc Ac trans]
+29.0 +26.8 88 +45 +50 опасность
перегрева
1009.8 1006.4 +25.6 2
06 17.09 штиль 0 4000 м дымка 6/3 600 м
[Sc Ac trans]
+32.2 +27.2 75 +51 +64 опасность
перегрева
1008.7 1005.3
12 17.09 штиль 0 4000 м дымка {дождь} 6/4 600 м
[Sc Ac trans]
+26.6 +26.0 97 +40 +40 очень
душно
1007.2 1003.8 +34.5 13
00 18.09 штиль 0 1000 м дымка 10/6 300 м
[St Ac trans]
+26.0 +25.4 97 +38 +38 очень
душно
1010.1 1006.6 13
03 18.09 штиль 0 4000 м дымка 6/0
[Ac trans Ci fib]
+28.4 +26.9 92 +45 +55 опасность
перегрева
1012.0 1008.6 +25.0 13
06 18.09 штиль 0 4000 м 6/3 600 м
[Sc Ac trans]
+33.6 +26.4 66 +50 +63 опасность
перегрева
1011.0 1007.6
12 18.09 штиль 0 4000 м 3/0
[Ac trans]
+33.0 +25.4 64 +47 +47 опасность
перегрева
1007.9 1004.5 +35.4

 

Местоположение метеостанции Кайлашахар (Трипура, Индия): широта 24.32 долгота 92.00 высота над уровнем моря 30 м.

В архиве по умолчанию представлена погода в Кайлашахаре за последнюю неделю. Архивные данные за месяц целиком и за предыдущие месяцы, начиная с января 2011 года, Вы можете получить, выбрав интересующий диапазон дат из раскрывающегося списка и нажав кнопку "Ввод!".


*Определитесь, кто Вы:
робот инопланетянин человек

Внимание! Время в таблицах - всемирное. Для получения местного времени необходимо прибавить поправку, которая равна 5.5 ч.

Смотрите также архив погоды в соседних городах и на ближайших метеорологических станциях:

Погода в Стримангале (Бангладеш) (27 км)
Погода в Силхете (Бангладеш) (66 км)
Погода в Ленгпи (Мизорам, Индия) (83 км)
Погода в Агартале (Трипура, Индия) (91 км)
Погода в Силчаре (Ассам, Индия) (94 км)
Погода в Аиджале (Мизорам, Индия) (98 км)
Погода в Черапунджи (Мегхалая, Индия) (107 км)
Погода в Никли (Бангладеш) (108 км)
Погода в Комилле (Бангладеш) (129 км)
Погода в Шиллонге (Мегхалая, Индия) (140 км)

Пояснения к столбцам:

Ветер - указаны скорость ветра в м/с - средняя за 10 мин, порывы в срок и между сроками (в фигурных скобках) и направление, откуда дует ветер: С - северный, СВ - северо-восточный, В - восточный, ЮВ - юго-восточный, Ю - южный, ЮЗ - юго-западный, З - западный, СЗ - северо-западный.
Видимость - горизонтальная дальность видимости в метрах или километрах. При видимости от 1 до 10 км при отсутствии осадков обычно наблюдается дымка, при ухудшении видимости до 1 км и менее - туман. В сухую погоду видимость может ухудшаться дымом, пылью или мглою.
Явления - указаны атмосферные явления, наблюдавшиеся в срок или в последний час перед сроком; фигурными скобками обозначены явления, наблюдавшиеся между сроками (за 1-3 часа до срока); квадратными скобками обозначены град или гололедные отложения с указанием их диаметра в мм.
Облачность - указаны через наклонную черту общая и нижняя облачность в баллах и высота нижней границы облаков в метрах; квадратными скобками обозначены формы облаков: Ci - перистые, Cs - перисто-слоистые, Cc - перисто-кучевые, Ac - высококучевые, As - высокослоистые, Sc - слоисто-кучевые, Ns - слоисто-дождевые, Cu - кучевые, Cb - кучево-дождевые. Подробнее классификацию облаков см. в Атласе облаков (PDF).
T - Температура воздуха - температура, измеренная на высоте 2 м над землей.
Td - Температура точки росы - температура, при понижении до которой содержащийся в воздухе водяной пар достигнет насыщения.
f - Относительная влажность воздуха - влажноcть воздуха, измеренная на высоте 2 м над землей.
Te - Эффективная температура - температура, которую ощущает одетый по сезону человек в тени. Характеристика душности погоды. При расчете учитывается влияние влажности воздуха и скорости ветра на теплоощущения человека.
Tes - Эффективная температура на солнце - температура, которую ощущает человек, с поправкой на солнечный нагрев. Характеристика знойности погоды. Зависит от высоты солнца над горизонтом, облачности и скорости ветра. Ночью, в пасмурную погоду, а также при ветре 12 м/с и более поправка равна нулю.
P - Атмосферное давление - приведенное к уровню моря атмосферное давление.
Po - Атмосферное давление - измеренное на уровне метеостанции атмосферное давление.
Tmin - Минимальная температура - минимум температуры воздуха на высоте 2 м над землей.
Tmax - Максимальная температура - максимум температуры воздуха на высоте 2 м над землей.
R - Количество осадков - Количество выпавших осадков за период времени, мм. При наведении курсора мыши на число - период времени, за который выпало указанное количество осадков.
R24 - Количество осадков - Количество выпавших осадков за 24 часа, мм.
S - Снежный покров - Высота снежного покрова, см. При наведении курсора мыши на число - состояние снежного покрова и степень покрытия местности в баллах.